This is the latest recevied weather packets stored in our database for station/object K1TTC. If no packets are shown the sender has not sent any weather packets the latest 10 day(s).
| Time | Temp. | Humidity | Pressure | Rain* | Wind** | Luminosity | Snow |
|---|---|---|---|---|---|---|---|
| 1788199980 | 27.22° C | 37% | 1021.1 hPa | 0 mm | - | 854 W/m² | - |
| 1788199379 | 27.22° C | 35% | 1021.1 hPa | 0 mm | - | 599 W/m² | - |
| 1788198775 | 27.22° C | 34% | 1021.1 hPa | 0 mm | - | 469 W/m² | - |
| 1788198173 | 27.22° C | 36% | 1021.1 hPa | 0 mm | - | 1004 W/m² | - |
| 1788197570 | 27.22° C | 35% | 1021.2 hPa | 0 mm | - | 527 W/m² | - |
| 1788197052 | 27.22° C | 36% | 1021.4 hPa | 0 mm | - | 749 W/m² | - |
| 1788196372 | 27.22° C | 36% | 1021.3 hPa | 0 mm | - | 851 W/m² | - |
| 1788195769 | 27.22° C | 36% | 1021.5 hPa | 0 mm | - | 534 W/m² | - |
| 1788195167 | 26.67° C | 37% | 1021.5 hPa | 0 mm | - | 494 W/m² | - |
| 1788194570 | 26.67° C | 38% | 1021.6 hPa | 0 mm | - | 654 W/m² | - |
| 1788193971 | 26.67° C | 38% | 1021.6 hPa | 0 mm | - | 860 W/m² | - |
| 1788193365 | 26.11° C | 40% | 1021.7 hPa | 0 mm | - | 703 W/m² | - |
| 1788192778 | 26.11° C | 41% | 1021.9 hPa | 0 mm | - | 853 W/m² | - |
| 1788192165 | 25.56° C | 40% | 1021.9 hPa | 0 mm | - | 686 W/m² | - |
| 1788191566 | 25.56° C | 41% | 1022.1 hPa | 0 mm | - | 870 W/m² | - |
| 1788190964 | 25.56° C | 43% | 1022.2 hPa | 0 mm | - | 809 W/m² | - |
| 1788190371 | 25° C | 42% | 1022.3 hPa | 0 mm | - | 875 W/m² | - |
| 1788189762 | 25° C | 42% | 1022.4 hPa | 0 mm | - | 613 W/m² | - |
| 1788189160 | 24.44° C | 42% | 1022.6 hPa | 0 mm | - | 812 W/m² | - |
| 1788188561 | 24.44° C | 44% | 1022.5 hPa | 0 mm | - | 798 W/m² | - |
| 1788187959 | 24.44° C | 43% | 1022.7 hPa | 0 mm | - | 779 W/m² | - |
| 1788187359 | 23.89° C | 44% | 1022.8 hPa | 0 mm | - | 761 W/m² | - |
| 1788186760 | 23.33° C | 44% | 1022.8 hPa | 0 mm | - | 744 W/m² | - |
| 1788186156 | 23.33° C | 46% | 1022.8 hPa | 0 mm | - | 719 W/m² | - |
| 1788185555 | 22.78° C | 46% | 1022.7 hPa | 0 mm | - | 698 W/m² | - |
* Rain latest hour (hover to see other rain measurements)
** Current wind speed in m/s (hover to see current wind gust speed)